• In Hungary
  • List of Countries
  • For 7 days
  • Water Temperature
  • Satellite Maps
  • Weather Map
  • News
  • Weather Widgets
  • user-avatar
    Login

    Hourly Weather Shkoder

    Today, 16 January, Tuesday

    Time Temperature Precipitation Wind Pressure Humidity
    00:00 +7°C° 0.4 mm 2 mps 742 mmHg 96%
    01:00 +6°C° 0 mm 2 mps 742 mmHg 96%
    02:00 +6°C° 0.1 mm 2 mps 742 mmHg 96%
    03:00 +6°C° 0.1 mm 2 mps 742 mmHg 95%
    04:00 +6°C° 0.1 mm 2 mps 741 mmHg 95%
    05:00 +6°C° 0.1 mm 2 mps 741 mmHg 94%
    06:00 +5°C° 0.1 mm 2 mps 741 mmHg 93%
    07:00 +5°C° 0 mm 2 mps 740 mmHg 91%
    08:00 +5°C° 0.2 mm 2 mps 740 mmHg 90%
    09:00 +5°C° 0.2 mm 3 mps 740 mmHg 90%
    10:00 +7°C° 0.2 mm 3 mps 739 mmHg 89%
    11:00 +8°C° 0.4 mm 3 mps 739 mmHg 88%
    12:00 +7°C° 0.4 mm 4 mps 738 mmHg 87%
    13:00 +8°C° 0.4 mm 4 mps 738 mmHg 86%
    14:00 +8°C° 0.4 mm 4 mps 737 mmHg 88%
    15:00 +7°C° 0.4 mm 4 mps 737 mmHg 89%
    16:00 +7°C° 0.4 mm 4 mps 736 mmHg 90%
    17:00 +8°C° 0.6 mm 3 mps 736 mmHg 92%
    18:00 +8°C° 0.6 mm 3 mps 736 mmHg 93%
    19:00 +8°C° 0.6 mm 3 mps 736 mmHg 94%
    20:00 +8°C° 0.9 mm 3 mps 736 mmHg 94%
    21:00 +8°C° 0.9 mm 3 mps 736 mmHg 94%
    22:00 +8°C° 0.9 mm 3 mps 736 mmHg 95%
    23:00 +7°C° 0.9 mm 4 mps 735 mmHg 95%

    Tomorrow, 17 January, Wednesday

    Time Temperature Precipitation Wind Pressure Humidity
    00:00 +8°C° 0.9 mm 4 mps 735 mmHg 95%
    01:00 +8°C° 0.9 mm 4 mps 735 mmHg 95%
    02:00 +8°C° 0.8 mm 4 mps 734 mmHg 95%
    03:00 +8°C° 0.8 mm 4 mps 734 mmHg 95%
    04:00 +8°C° 0.8 mm 5 mps 733 mmHg 94%
    05:00 +8°C° 1.1 mm 5 mps 732 mmHg 94%
    06:00 +8°C° 1.1 mm 5 mps 732 mmHg 94%
    07:00 +8°C° 1.1 mm 6 mps 731 mmHg 94%
    08:00 +9°C° 1.4 mm 6 mps 731 mmHg 94%
    09:00 +9°C° 1.4 mm 7 mps 730 mmHg 93%
    10:00 +9°C° 1.4 mm 8 mps 729 mmHg 92%
    11:00 +9°C° 1.8 mm 8 mps 728 mmHg 92%
    12:00 +10°C° 1.8 mm 9 mps 727 mmHg 91%
    13:00 +10°C° 1.8 mm 9 mps 726 mmHg 90%
    14:00 +8°C° 1.1 mm 9 mps 726 mmHg 89%
    15:00 +9°C° 1.1 mm 8 mps 726 mmHg 88%
    16:00 +7°C° 1.1 mm 8 mps 726 mmHg 87%
    17:00 +8°C° 0.5 mm 7 mps 726 mmHg 84%
    18:00 +6°C° 0.5 mm 7 mps 727 mmHg 81%
    19:00 +5°C° 0.5 mm 6 mps 728 mmHg 78%
    20:00 +5°C° 0.4 mm 6 mps 729 mmHg 78%
    21:00 +4°C° 0.4 mm 6 mps 730 mmHg 78%
    22:00 +3°C° 0.4 mm 6 mps 731 mmHg 78%
    23:00 +2°C° 0.1 mm 6 mps 732 mmHg 77%

    Day after tomorrow, 18 January, Thursday

    Time Temperature Precipitation Wind Pressure Humidity
    00:00 +1°C° 0.1 mm 5 mps 734 mmHg 76%
    01:00 0°C° 0.1 mm 4 mps 735 mmHg 75%
    02:00 -1°C° 0 mm 4 mps 735 mmHg 75%
    03:00 -2°C° 0 mm 4 mps 736 mmHg 74%
    04:00 -3°C° 0 mm 4 mps 737 mmHg 73%
    05:00 -3°C° 0 mm 4 mps 738 mmHg 73%
    06:00 -2°C° 0 mm 3 mps 739 mmHg 72%
    07:00 -2°C° 0 mm 3 mps 739 mmHg 72%
    08:00 0°C° 0 mm 3 mps 740 mmHg 67%
    09:00 +2°C° 0 mm 2 mps 741 mmHg 62%
    10:00 +3°C° 0 mm 2 mps 741 mmHg 57%
    11:00 +4°C° 0 mm 2 mps 741 mmHg 55%
    12:00 +5°C° 0 mm 2 mps 741 mmHg 54%
    13:00 +6°C° 0 mm 2 mps 741 mmHg 52%
    14:00 +5°C° 0 mm 2 mps 741 mmHg 56%
    15:00 +5°C° 0 mm 2 mps 741 mmHg 60%
    16:00 +5°C° 0 mm 2 mps 741 mmHg 64%
    17:00 +4°C° 0 mm 2 mps 741 mmHg 66%
    18:00 +3°C° 0 mm 2 mps 741 mmHg 67%
    19:00 +3°C° 0 mm 2 mps 742 mmHg 69%
    20:00 +2°C° 0 mm 3 mps 742 mmHg 70%
    21:00 +2°C° 0 mm 3 mps 742 mmHg 70%
    22:00 +2°C° 0 mm 3 mps 742 mmHg 71%
    23:00 +2°C° 0 mm 3 mps 741 mmHg 73%

    19 January, Friday

    Time Temperature Precipitation Wind Pressure Humidity
    00:00 +2°C° 0 mm 3 mps 741 mmHg 75%
    01:00 +2°C° 0 mm 3 mps 740 mmHg 77%
    02:00 +2°C° 0 mm 3 mps 740 mmHg 78%
    03:00 +2°C° 0 mm 3 mps 740 mmHg 78%
    04:00 +3°C° 0 mm 3 mps 739 mmHg 79%
    05:00 +3°C° 0.1 mm 3 mps 739 mmHg 80%
    06:00 +4°C° 0.1 mm 3 mps 739 mmHg 82%
    07:00 +4°C° 0.1 mm 3 mps 739 mmHg 84%
    08:00 +5°C° 0.1 mm 3 mps 739 mmHg 86%
    09:00 +5°C° 0.1 mm 3 mps 738 mmHg 87%
    10:00 +7°C° 0.1 mm 3 mps 738 mmHg 89%
    11:00 +6°C° 0.3 mm 4 mps 738 mmHg 90%
    12:00 +6°C° 0.3 mm 4 mps 737 mmHg 91%
    13:00 +7°C° 0.3 mm 4 mps 737 mmHg 92%
    14:00 +7°C° 0.6 mm 4 mps 737 mmHg 93%
    15:00 +7°C° 0.6 mm 4 mps 737 mmHg 93%
    16:00 +7°C° 0.6 mm 4 mps 736 mmHg 94%
    17:00 +7°C° 0.7 mm 5 mps 736 mmHg 94%
    18:00 +7°C° 0.7 mm 5 mps 736 mmHg 94%
    19:00 +7°C° 0.7 mm 5 mps 736 mmHg 94%
    20:00 +7°C° 0.8 mm 6 mps 736 mmHg 94%
    21:00 +7°C° 0.8 mm 6 mps 735 mmHg 93%
    22:00 +7°C° 0.8 mm 6 mps 735 mmHg 93%
    23:00 +7°C° 1.3 mm 6 mps 735 mmHg 92%

    20 January, Saturday

    Time Temperature Precipitation Wind Pressure Humidity
    00:00 +7°C° 1.3 mm 6 mps 734 mmHg 92%
    01:00 +6°C° 1.3 mm 7 mps 734 mmHg 91%
    02:00 +6°C° 1.6 mm 7 mps 733 mmHg 92%
    03:00 +8°C° 1.6 mm 7 mps 733 mmHg 93%
    04:00 +8°C° 1.6 mm 7 mps 732 mmHg 93%
    05:00 +8°C° 2.3 mm 7 mps 732 mmHg 93%
    06:00 +8°C° 2.3 mm 7 mps 732 mmHg 93%
    07:00 +7°C° 2.3 mm 8 mps 731 mmHg 93%
    08:00 +7°C° 3.4 mm 8 mps 731 mmHg 93%
    09:00 +7°C° 3.4 mm 8 mps 731 mmHg 93%
    10:00 +9°C° 3.4 mm 8 mps 731 mmHg 93%
    11:00 +9°C° 4.1 mm 7 mps 730 mmHg 93%
    12:00 +8°C° 4.1 mm 7 mps 729 mmHg 93%
    13:00 +8°C° 4.1 mm 7 mps 729 mmHg 94%
    14:00 +8°C° 4.2 mm 6 mps 729 mmHg 94%
    15:00 +8°C° 4.2 mm 6 mps 728 mmHg 95%
    16:00 +8°C° 4.2 mm 5 mps 728 mmHg 96%
    17:00 +8°C° 3.5 mm 4 mps 728 mmHg 96%
    18:00 +8°C° 3.5 mm 3 mps 728 mmHg 96%
    19:00 +8°C° 3.5 mm 3 mps 728 mmHg 96%
    20:00 +8°C° 0.8 mm 2 mps 728 mmHg 94%
    21:00 +7°C° 0.8 mm 2 mps 728 mmHg 93%
    22:00 +7°C° 0.8 mm 2 mps 728 mmHg 92%
    23:00 +6°C° 0.2 mm 2 mps 728 mmHg 90%

    21 January, Sunday

    Time Temperature Precipitation Wind Pressure Humidity
    00:00 +6°C° 0.2 mm 2 mps 728 mmHg 88%
    01:00 +6°C° 0.2 mm 2 mps 727 mmHg 86%
    02:00 +5°C° 0.2 mm 2 mps 727 mmHg 85%
    03:00 +5°C° 0.2 mm 2 mps 727 mmHg 85%
    04:00 +5°C° 0.2 mm 2 mps 726 mmHg 84%
    05:00 +5°C° 0.5 mm 2 mps 726 mmHg 85%
    06:00 +4°C° 0.5 mm 3 mps 726 mmHg 85%
    07:00 +4°C° 0.5 mm 4 mps 726 mmHg 86%
    08:00 +4°C° 0.4 mm 4 mps 726 mmHg 84%
    09:00 +3°C° 0.4 mm 5 mps 726 mmHg 81%
    10:00 +3°C° 0.4 mm 5 mps 726 mmHg 79%
    11:00 +2°C° 0.3 mm 5 mps 726 mmHg 78%
    12:00 +2°C° 0.3 mm 6 mps 726 mmHg 76%
    13:00 +2°C° 0.3 mm 6 mps 726 mmHg 75%
    14:00 +2°C° 0.1 mm 6 mps 727 mmHg 75%
    15:00 +1°C° 0.1 mm 5 mps 727 mmHg 75%
    16:00 +1°C° 0.1 mm 5 mps 727 mmHg 75%
    17:00 0°C° 0 mm 5 mps 728 mmHg 75%
    18:00 0°C° 0 mm 5 mps 728 mmHg 76%
    19:00 -1°C° 0 mm 4 mps 728 mmHg 76%
    20:00 -1°C° 0 mm 4 mps 729 mmHg 76%
    21:00 -1°C° 0 mm 4 mps 729 mmHg 75%
    22:00 -2°C° 0 mm 4 mps 729 mmHg 75%
    23:00 -2°C° 0 mm 4 mps 729 mmHg 75%
    Show more